owner,sensor,date,latitude,longitude,sea_water_turbidity,qcFlag 
NERRS,ioos:station:NOAA.NERRS:marscwq:1,2017-06-01T00:00:00Z,27.8383,-97.0503,3.0,1111122 
NERRS,ioos:station:NOAA.NERRS:marscwq:1,2017-06-01T01:00:00Z,27.8383,-97.0503,3.0,1111122 
NERRS,ioos:station:NOAA.NERRS:marscwq:1,2017-06-01T02:00:00Z,27.8383,-97.0503,3.0,1111122 
NERRS,ioos:station:NOAA.NERRS:marscwq:1,2017-06-01T03:00:00Z,27.8383,-97.0503,5.0,1111122 
NERRS,ioos:station:NOAA.NERRS:marscwq:1,2017-06-01T04:00:00Z,27.8383,-97.0503,7.0,1111122 
NERRS,ioos:station:NOAA.NERRS:marscwq:1,2017-06-01T05:00:00Z,27.8383,-97.0503,9.0,1111122 
NERRS,ioos:station:NOAA.NERRS:marscwq:1,2017-06-01T06:00:00Z,27.8383,-97.0503,8.0,1111122 
NERRS,ioos:station:NOAA.NERRS:marscwq:1,2017-06-01T07:00:00Z,27.8383,-97.0503,8.0,1111122 
NERRS,ioos:station:NOAA.NERRS:marscwq:1,2017-06-01T08:00:00Z,27.8383,-97.0503,8.0,1111122 
NERRS,ioos:station:NOAA.NERRS:marscwq:1,2017-06-01T09:00:00Z,27.8383,-97.0503,8.0,1111122 
NERRS,ioos:station:NOAA.NERRS:marscwq:1,2017-06-01T10:00:00Z,27.8383,-97.0503,8.0,1111122 
NERRS,ioos:station:NOAA.NERRS:marscwq:1,2017-06-01T11:00:00Z,27.8383,-97.0503,10.0,1111122 
NERRS,ioos:station:NOAA.NERRS:marscwq:1,2017-06-01T12:00:00Z,27.8383,-97.0503,6.0,1111122 
NERRS,ioos:station:NOAA.NERRS:marscwq:1,2017-06-01T13:00:00Z,27.8383,-97.0503,6.0,1111122 
NERRS,ioos:station:NOAA.NERRS:marscwq:1,2017-06-01T14:00:00Z,27.8383,-97.0503,7.0,1111122 
NERRS,ioos:station:NOAA.NERRS:marscwq:1,2017-06-01T15:00:00Z,27.8383,-97.0503,9.0,1111122 
NERRS,ioos:station:NOAA.NERRS:marscwq:1,2017-06-01T16:00:00Z,27.8383,-97.0503,7.0,1111122 
NERRS,ioos:station:NOAA.NERRS:marscwq:1,2017-06-01T17:00:00Z,27.8383,-97.0503,4.0,1111122 
NERRS,ioos:station:NOAA.NERRS:marscwq:1,2017-06-01T18:00:00Z,27.8383,-97.0503,4.0,1111122 
NERRS,ioos:station:NOAA.NERRS:marscwq:1,2017-06-01T19:00:00Z,27.8383,-97.0503,5.0,1111122 
NERRS,ioos:station:NOAA.NERRS:marscwq:1,2017-06-01T20:00:00Z,27.8383,-97.0503,5.0,1111122 
NERRS,ioos:station:NOAA.NERRS:marscwq:1,2017-06-01T21:00:00Z,27.8383,-97.0503,5.0,1111122 
NERRS,ioos:station:NOAA.NERRS:marscwq:1,2017-06-01T22:00:00Z,27.8383,-97.0503,5.0,1111122 
NERRS,ioos:station:NOAA.NERRS:marscwq:1,2017-06-01T23:00:00Z,27.8383,-97.0503,5.0,1111122 
NERRS,ioos:station:NOAA.NERRS:marscwq:1,2017-06-02T00:00:00Z,27.8383,-97.0503,5.0,1111122 
NERRS,ioos:station:NOAA.NERRS:marscwq:1,2017-06-02T01:00:00Z,27.8383,-97.0503,6.0,1111122 
NERRS,ioos:station:NOAA.NERRS:marscwq:1,2017-06-02T02:00:00Z,27.8383,-97.0503,5.0,1111122 
NERRS,ioos:station:NOAA.NERRS:marscwq:1,2017-06-02T03:00:00Z,27.8383,-97.0503,5.0,1111122 
NERRS,ioos:station:NOAA.NERRS:marscwq:1,2017-06-02T04:00:00Z,27.8383,-97.0503,6.0,1111122 
NERRS,ioos:station:NOAA.NERRS:marscwq:1,2017-06-02T05:00:00Z,27.8383,-97.0503,4.0,1111122 
NERRS,ioos:station:NOAA.NERRS:marscwq:1,2017-06-02T06:00:00Z,27.8383,-97.0503,3.0,1111122 
NERRS,ioos:station:NOAA.NERRS:marscwq:1,2017-06-02T07:00:00Z,27.8383,-97.0503,4.0,1111122 
NERRS,ioos:station:NOAA.NERRS:marscwq:1,2017-06-02T08:00:00Z,27.8383,-97.0503,4.0,1111122 
NERRS,ioos:station:NOAA.NERRS:marscwq:1,2017-06-02T09:00:00Z,27.8383,-97.0503,10.0,1111122 
NERRS,ioos:station:NOAA.NERRS:marscwq:1,2017-06-02T10:00:00Z,27.8383,-97.0503,6.0,1111122 
NERRS,ioos:station:NOAA.NERRS:marscwq:1,2017-06-02T11:00:00Z,27.8383,-97.0503,5.0,1111122 
NERRS,ioos:station:NOAA.NERRS:marscwq:1,2017-06-02T12:00:00Z,27.8383,-97.0503,6.0,1111122 
NERRS,ioos:station:NOAA.NERRS:marscwq:1,2017-06-02T13:00:00Z,27.8383,-97.0503,4.0,1111122 
NERRS,ioos:station:NOAA.NERRS:marscwq:1,2017-06-02T14:00:00Z,27.8383,-97.0503,5.0,1111122 
NERRS,ioos:station:NOAA.NERRS:marscwq:1,2017-06-02T15:00:00Z,27.8383,-97.0503,5.0,1111122 
NERRS,ioos:station:NOAA.NERRS:marscwq:1,2017-06-02T16:00:00Z,27.8383,-97.0503,7.0,1111122 
NERRS,ioos:station:NOAA.NERRS:marscwq:1,2017-06-02T17:00:00Z,27.8383,-97.0503,8.0,1111122 
NERRS,ioos:station:NOAA.NERRS:marscwq:1,2017-06-02T18:00:00Z,27.8383,-97.0503,7.0,1111122 
NERRS,ioos:station:NOAA.NERRS:marscwq:1,2017-06-02T19:00:00Z,27.8383,-97.0503,5.0,1111122 
NERRS,ioos:station:NOAA.NERRS:marscwq:1,2017-06-02T20:00:00Z,27.8383,-97.0503,3.0,1111122 
NERRS,ioos:station:NOAA.NERRS:marscwq:1,2017-06-02T21:00:00Z,27.8383,-97.0503,3.0,1111122 
NERRS,ioos:station:NOAA.NERRS:marscwq:1,2017-06-02T22:00:00Z,27.8383,-97.0503,4.0,1111122 
NERRS,ioos:station:NOAA.NERRS:marscwq:1,2017-06-02T23:00:00Z,27.8383,-97.0503,4.0,1111122 
NERRS,ioos:station:NOAA.NERRS:marscwq:1,2017-06-03T00:00:00Z,27.8383,-97.0503,4.0,1111122 
NERRS,ioos:station:NOAA.NERRS:marscwq:1,2017-06-03T01:00:00Z,27.8383,-97.0503,4.0,1111122 
NERRS,ioos:station:NOAA.NERRS:marscwq:1,2017-06-03T02:00:00Z,27.8383,-97.0503,9.0,1111122 
NERRS,ioos:station:NOAA.NERRS:marscwq:1,2017-06-03T03:00:00Z,27.8383,-97.0503,3.0,1111122 
NERRS,ioos:station:NOAA.NERRS:marscwq:1,2017-06-03T04:00:00Z,27.8383,-97.0503,4.0,1111122 
NERRS,ioos:station:NOAA.NERRS:marscwq:1,2017-06-03T05:00:00Z,27.8383,-97.0503,4.0,1111122 
NERRS,ioos:station:NOAA.NERRS:marscwq:1,2017-06-03T06:00:00Z,27.8383,-97.0503,3.0,1111122 
NERRS,ioos:station:NOAA.NERRS:marscwq:1,2017-06-03T07:00:00Z,27.8383,-97.0503,2.0,1111122 
NERRS,ioos:station:NOAA.NERRS:marscwq:1,2017-06-03T08:00:00Z,27.8383,-97.0503,3.0,1111122 
NERRS,ioos:station:NOAA.NERRS:marscwq:1,2017-06-03T09:00:00Z,27.8383,-97.0503,2.0,1111122 
NERRS,ioos:station:NOAA.NERRS:marscwq:1,2017-06-03T10:00:00Z,27.8383,-97.0503,2.0,1111122 
NERRS,ioos:station:NOAA.NERRS:marscwq:1,2017-06-03T11:00:00Z,27.8383,-97.0503,3.0,1111122 
NERRS,ioos:station:NOAA.NERRS:marscwq:1,2017-06-03T12:00:00Z,27.8383,-97.0503,2.0,1111122 
NERRS,ioos:station:NOAA.NERRS:marscwq:1,2017-06-03T13:00:00Z,27.8383,-97.0503,2.0,1111122 
NERRS,ioos:station:NOAA.NERRS:marscwq:1,2017-06-03T14:00:00Z,27.8383,-97.0503,1.0,1111122 
NERRS,ioos:station:NOAA.NERRS:marscwq:1,2017-06-03T15:00:00Z,27.8383,-97.0503,3.0,1111122 
NERRS,ioos:station:NOAA.NERRS:marscwq:1,2017-06-03T16:00:00Z,27.8383,-97.0503,2.0,1111122 
NERRS,ioos:station:NOAA.NERRS:marscwq:1,2017-06-03T17:00:00Z,27.8383,-97.0503,4.0,1111122 
NERRS,ioos:station:NOAA.NERRS:marscwq:1,2017-06-03T18:00:00Z,27.8383,-97.0503,9.0,1111122 
NERRS,ioos:station:NOAA.NERRS:marscwq:1,2017-06-03T19:00:00Z,27.8383,-97.0503,2.0,1111122 
NERRS,ioos:station:NOAA.NERRS:marscwq:1,2017-06-03T20:00:00Z,27.8383,-97.0503,2.0,1111122 
NERRS,ioos:station:NOAA.NERRS:marscwq:1,2017-06-03T21:00:00Z,27.8383,-97.0503,2.0,1111122 
NERRS,ioos:station:NOAA.NERRS:marscwq:1,2017-06-03T22:00:00Z,27.8383,-97.0503,4.0,1111122 
NERRS,ioos:station:NOAA.NERRS:marscwq:1,2017-06-03T23:00:00Z,27.8383,-97.0503,3.0,1111122 
NERRS,ioos:station:NOAA.NERRS:marscwq:1,2017-06-04T00:00:00Z,27.8383,-97.0503,12.0,1111122 
NERRS,ioos:station:NOAA.NERRS:marscwq:1,2017-06-04T01:00:00Z,27.8383,-97.0503,17.0,1111122 
NERRS,ioos:station:NOAA.NERRS:marscwq:1,2017-06-04T02:00:00Z,27.8383,-97.0503,7.0,1111122 
NERRS,ioos:station:NOAA.NERRS:marscwq:1,2017-06-04T03:00:00Z,27.8383,-97.0503,3.0,1111122 
NERRS,ioos:station:NOAA.NERRS:marscwq:1,2017-06-04T04:00:00Z,27.8383,-97.0503,3.0,1111122 
NERRS,ioos:station:NOAA.NERRS:marscwq:1,2017-06-04T05:00:00Z,27.8383,-97.0503,5.0,1111122 
NERRS,ioos:station:NOAA.NERRS:marscwq:1,2017-06-04T06:00:00Z,27.8383,-97.0503,4.0,1111122 
NERRS,ioos:station:NOAA.NERRS:marscwq:1,2017-06-04T07:00:00Z,27.8383,-97.0503,3.0,1111122 
NERRS,ioos:station:NOAA.NERRS:marscwq:1,2017-06-04T08:00:00Z,27.8383,-97.0503,2.0,1111122 
NERRS,ioos:station:NOAA.NERRS:marscwq:1,2017-06-04T09:00:00Z,27.8383,-97.0503,2.0,1111122 
NERRS,ioos:station:NOAA.NERRS:marscwq:1,2017-06-04T10:00:00Z,27.8383,-97.0503,2.0,1111122 
NERRS,ioos:station:NOAA.NERRS:marscwq:1,2017-06-04T11:00:00Z,27.8383,-97.0503,2.0,1111122 
NERRS,ioos:station:NOAA.NERRS:marscwq:1,2017-06-04T12:00:00Z,27.8383,-97.0503,3.0,1111122 
NERRS,ioos:station:NOAA.NERRS:marscwq:1,2017-06-04T13:00:00Z,27.8383,-97.0503,2.0,1111122 
NERRS,ioos:station:NOAA.NERRS:marscwq:1,2017-06-04T14:00:00Z,27.8383,-97.0503,4.0,1111122 
NERRS,ioos:station:NOAA.NERRS:marscwq:1,2017-06-04T15:00:00Z,27.8383,-97.0503,2.0,1111122 
NERRS,ioos:station:NOAA.NERRS:marscwq:1,2017-06-04T16:00:00Z,27.8383,-97.0503,3.0,1111122 
NERRS,ioos:station:NOAA.NERRS:marscwq:1,2017-06-04T17:00:00Z,27.8383,-97.0503,2.0,1111122 
NERRS,ioos:station:NOAA.NERRS:marscwq:1,2017-06-04T18:00:00Z,27.8383,-97.0503,2.0,1111122 
NERRS,ioos:station:NOAA.NERRS:marscwq:1,2017-06-04T19:00:00Z,27.8383,-97.0503,2.0,1111122 
NERRS,ioos:station:NOAA.NERRS:marscwq:1,2017-06-04T20:00:00Z,27.8383,-97.0503,2.0,1111122 
NERRS,ioos:station:NOAA.NERRS:marscwq:1,2017-06-04T21:00:00Z,27.8383,-97.0503,10.0,1111122 
NERRS,ioos:station:NOAA.NERRS:marscwq:1,2017-06-04T22:00:00Z,27.8383,-97.0503,2.0,1111122 
NERRS,ioos:station:NOAA.NERRS:marscwq:1,2017-06-04T23:00:00Z,27.8383,-97.0503,3.0,1111122 
NERRS,ioos:station:NOAA.NERRS:marscwq:1,2017-06-05T00:00:00Z,27.8383,-97.0503,13.0,1111122 
NERRS,ioos:station:NOAA.NERRS:marscwq:1,2017-06-05T01:00:00Z,27.8383,-97.0503,8.0,1111122 
NERRS,ioos:station:NOAA.NERRS:marscwq:1,2017-06-05T02:00:00Z,27.8383,-97.0503,9.0,1111122 
NERRS,ioos:station:NOAA.NERRS:marscwq:1,2017-06-05T03:00:00Z,27.8383,-97.0503,5.0,1111122 
NERRS,ioos:station:NOAA.NERRS:marscwq:1,2017-06-05T04:00:00Z,27.8383,-97.0503,4.0,1111122 
NERRS,ioos:station:NOAA.NERRS:marscwq:1,2017-06-05T05:00:00Z,27.8383,-97.0503,5.0,1111122 
NERRS,ioos:station:NOAA.NERRS:marscwq:1,2017-06-05T06:00:00Z,27.8383,-97.0503,5.0,1111122 
NERRS,ioos:station:NOAA.NERRS:marscwq:1,2017-06-05T07:00:00Z,27.8383,-97.0503,8.0,1111122 
NERRS,ioos:station:NOAA.NERRS:marscwq:1,2017-06-05T08:00:00Z,27.8383,-97.0503,9.0,1111122 
NERRS,ioos:station:NOAA.NERRS:marscwq:1,2017-06-05T09:00:00Z,27.8383,-97.0503,5.0,1111122 
NERRS,ioos:station:NOAA.NERRS:marscwq:1,2017-06-05T10:00:00Z,27.8383,-97.0503,4.0,1111122 
NERRS,ioos:station:NOAA.NERRS:marscwq:1,2017-06-05T11:00:00Z,27.8383,-97.0503,2.0,1111122 
NERRS,ioos:station:NOAA.NERRS:marscwq:1,2017-06-05T12:00:00Z,27.8383,-97.0503,3.0,1111122 
NERRS,ioos:station:NOAA.NERRS:marscwq:1,2017-06-05T13:00:00Z,27.8383,-97.0503,2.0,1111122 
NERRS,ioos:station:NOAA.NERRS:marscwq:1,2017-06-05T14:00:00Z,27.8383,-97.0503,1.0,1111122 
NERRS,ioos:station:NOAA.NERRS:marscwq:1,2017-06-05T16:00:00Z,27.8383,-97.0503,1.0,1111122 
NERRS,ioos:station:NOAA.NERRS:marscwq:1,2017-06-05T17:00:00Z,27.8383,-97.0503,1.0,1111122 
NERRS,ioos:station:NOAA.NERRS:marscwq:1,2017-06-05T19:00:00Z,27.8383,-97.0503,1.0,1111122 
NERRS,ioos:station:NOAA.NERRS:marscwq:1,2017-06-05T20:00:00Z,27.8383,-97.0503,1.0,1111122 
NERRS,ioos:station:NOAA.NERRS:marscwq:1,2017-06-05T21:00:00Z,27.8383,-97.0503,1.0,1111122 
NERRS,ioos:station:NOAA.NERRS:marscwq:1,2017-06-05T22:00:00Z,27.8383,-97.0503,2.0,1111122 
NERRS,ioos:station:NOAA.NERRS:marscwq:1,2017-06-05T23:00:00Z,27.8383,-97.0503,2.0,1111122 
NERRS,ioos:station:NOAA.NERRS:marscwq:1,2017-06-06T00:00:00Z,27.8383,-97.0503,7.0,1111122 
NERRS,ioos:station:NOAA.NERRS:marscwq:1,2017-06-06T01:00:00Z,27.8383,-97.0503,12.0,1111122 
NERRS,ioos:station:NOAA.NERRS:marscwq:1,2017-06-06T02:00:00Z,27.8383,-97.0503,8.0,1111122 
NERRS,ioos:station:NOAA.NERRS:marscwq:1,2017-06-06T03:00:00Z,27.8383,-97.0503,5.0,1111122 
NERRS,ioos:station:NOAA.NERRS:marscwq:1,2017-06-06T04:00:00Z,27.8383,-97.0503,5.0,1111122 
NERRS,ioos:station:NOAA.NERRS:marscwq:1,2017-06-06T05:00:00Z,27.8383,-97.0503,6.0,1111122 
NERRS,ioos:station:NOAA.NERRS:marscwq:1,2017-06-06T06:00:00Z,27.8383,-97.0503,4.0,1111122 
NERRS,ioos:station:NOAA.NERRS:marscwq:1,2017-06-06T07:00:00Z,27.8383,-97.0503,4.0,1111122 
NERRS,ioos:station:NOAA.NERRS:marscwq:1,2017-06-06T08:00:00Z,27.8383,-97.0503,5.0,1111122 
NERRS,ioos:station:NOAA.NERRS:marscwq:1,2017-06-06T09:00:00Z,27.8383,-97.0503,6.0,1111122 
NERRS,ioos:station:NOAA.NERRS:marscwq:1,2017-06-06T10:00:00Z,27.8383,-97.0503,3.0,1111122 
NERRS,ioos:station:NOAA.NERRS:marscwq:1,2017-06-06T11:00:00Z,27.8383,-97.0503,1.0,1111122 
NERRS,ioos:station:NOAA.NERRS:marscwq:1,2017-06-06T12:00:00Z,27.8383,-97.0503,1.0,1111122 
NERRS,ioos:station:NOAA.NERRS:marscwq:1,2017-06-06T19:00:00Z,27.8383,-97.0503,1.0,1111122 
NERRS,ioos:station:NOAA.NERRS:marscwq:1,2017-06-06T21:00:00Z,27.8383,-97.0503,3.0,1111122 
NERRS,ioos:station:NOAA.NERRS:marscwq:1,2017-06-06T22:00:00Z,27.8383,-97.0503,2.0,1111122 
NERRS,ioos:station:NOAA.NERRS:marscwq:1,2017-06-06T23:00:00Z,27.8383,-97.0503,3.0,1111122 
NERRS,ioos:station:NOAA.NERRS:marscwq:1,2017-06-07T00:00:00Z,27.8383,-97.0503,9.0,1111122 
NERRS,ioos:station:NOAA.NERRS:marscwq:1,2017-06-07T01:00:00Z,27.8383,-97.0503,6.0,1111122 
NERRS,ioos:station:NOAA.NERRS:marscwq:1,2017-06-07T02:00:00Z,27.8383,-97.0503,11.0,1111122 
NERRS,ioos:station:NOAA.NERRS:marscwq:1,2017-06-07T03:00:00Z,27.8383,-97.0503,12.0,1111122 
NERRS,ioos:station:NOAA.NERRS:marscwq:1,2017-06-07T04:00:00Z,27.8383,-97.0503,11.0,1111122 
NERRS,ioos:station:NOAA.NERRS:marscwq:1,2017-06-07T05:00:00Z,27.8383,-97.0503,11.0,1111122 
NERRS,ioos:station:NOAA.NERRS:marscwq:1,2017-06-07T06:00:00Z,27.8383,-97.0503,8.0,1111122 
NERRS,ioos:station:NOAA.NERRS:marscwq:1,2017-06-07T07:00:00Z,27.8383,-97.0503,6.0,1111122 
NERRS,ioos:station:NOAA.NERRS:marscwq:1,2017-06-07T08:00:00Z,27.8383,-97.0503,6.0,1111122 
NERRS,ioos:station:NOAA.NERRS:marscwq:1,2017-06-07T09:00:00Z,27.8383,-97.0503,11.0,1111122 
NERRS,ioos:station:NOAA.NERRS:marscwq:1,2017-06-07T10:00:00Z,27.8383,-97.0503,3.0,1111122 
NERRS,ioos:station:NOAA.NERRS:marscwq:1,2017-06-07T11:00:00Z,27.8383,-97.0503,1.0,1111122 
NERRS,ioos:station:NOAA.NERRS:marscwq:1,2017-06-07T18:00:00Z,27.8383,-97.0503,1.0,1111122 
NERRS,ioos:station:NOAA.NERRS:marscwq:1,2017-06-07T20:00:00Z,27.8383,-97.0503,1.0,1111122 
NERRS,ioos:station:NOAA.NERRS:marscwq:1,2017-06-07T21:00:00Z,27.8383,-97.0503,1.0,1111122 
NERRS,ioos:station:NOAA.NERRS:marscwq:1,2017-06-07T22:00:00Z,27.8383,-97.0503,1.0,1111122 
NERRS,ioos:station:NOAA.NERRS:marscwq:1,2017-06-07T23:00:00Z,27.8383,-97.0503,4.0,1111122 
NERRS,ioos:station:NOAA.NERRS:marscwq:1,2017-06-08T00:00:00Z,27.8383,-97.0503,3.0,1111122 
NERRS,ioos:station:NOAA.NERRS:marscwq:1,2017-06-08T01:00:00Z,27.8383,-97.0503,5.0,1111122 
NERRS,ioos:station:NOAA.NERRS:marscwq:1,2017-06-08T02:00:00Z,27.8383,-97.0503,6.0,1111122 
NERRS,ioos:station:NOAA.NERRS:marscwq:1,2017-06-08T03:00:00Z,27.8383,-97.0503,6.0,1111122 
NERRS,ioos:station:NOAA.NERRS:marscwq:1,2017-06-08T04:00:00Z,27.8383,-97.0503,5.0,1111122 
NERRS,ioos:station:NOAA.NERRS:marscwq:1,2017-06-08T05:00:00Z,27.8383,-97.0503,4.0,1111122 
NERRS,ioos:station:NOAA.NERRS:marscwq:1,2017-06-08T06:00:00Z,27.8383,-97.0503,5.0,1111122 
NERRS,ioos:station:NOAA.NERRS:marscwq:1,2017-06-08T07:00:00Z,27.8383,-97.0503,3.0,1111122 
NERRS,ioos:station:NOAA.NERRS:marscwq:1,2017-06-08T08:00:00Z,27.8383,-97.0503,4.0,1111122 
NERRS,ioos:station:NOAA.NERRS:marscwq:1,2017-06-08T09:00:00Z,27.8383,-97.0503,9.0,1111122 
NERRS,ioos:station:NOAA.NERRS:marscwq:1,2017-06-08T10:00:00Z,27.8383,-97.0503,4.0,1111122 
NERRS,ioos:station:NOAA.NERRS:marscwq:1,2017-06-08T11:00:00Z,27.8383,-97.0503,2.0,1111122 
NERRS,ioos:station:NOAA.NERRS:marscwq:1,2017-06-08T12:00:00Z,27.8383,-97.0503,2.0,1111122 
NERRS,ioos:station:NOAA.NERRS:marscwq:1,2017-06-08T13:00:00Z,27.8383,-97.0503,2.0,1111122 
NERRS,ioos:station:NOAA.NERRS:marscwq:1,2017-06-08T14:00:00Z,27.8383,-97.0503,1.0,1111122 
NERRS,ioos:station:NOAA.NERRS:marscwq:1,2017-06-08T23:00:00Z,27.8383,-97.0503,1.0,1111122 
NERRS,ioos:station:NOAA.NERRS:marscwq:1,2017-06-09T00:00:00Z,27.8383,-97.0503,3.0,1111122 
NERRS,ioos:station:NOAA.NERRS:marscwq:1,2017-06-09T01:00:00Z,27.8383,-97.0503,7.0,1111122 
NERRS,ioos:station:NOAA.NERRS:marscwq:1,2017-06-09T02:00:00Z,27.8383,-97.0503,4.0,1111122 
NERRS,ioos:station:NOAA.NERRS:marscwq:1,2017-06-09T03:00:00Z,27.8383,-97.0503,5.0,1111122 
NERRS,ioos:station:NOAA.NERRS:marscwq:1,2017-06-09T04:00:00Z,27.8383,-97.0503,2.0,1111122 
NERRS,ioos:station:NOAA.NERRS:marscwq:1,2017-06-09T05:00:00Z,27.8383,-97.0503,3.0,1111122 
NERRS,ioos:station:NOAA.NERRS:marscwq:1,2017-06-09T06:00:00Z,27.8383,-97.0503,3.0,1111122 
NERRS,ioos:station:NOAA.NERRS:marscwq:1,2017-06-09T07:00:00Z,27.8383,-97.0503,4.0,1111122 
NERRS,ioos:station:NOAA.NERRS:marscwq:1,2017-06-09T08:00:00Z,27.8383,-97.0503,3.0,1111122 
NERRS,ioos:station:NOAA.NERRS:marscwq:1,2017-06-09T09:00:00Z,27.8383,-97.0503,4.0,1111122 
NERRS,ioos:station:NOAA.NERRS:marscwq:1,2017-06-09T10:00:00Z,27.8383,-97.0503,2.0,1111122 
NERRS,ioos:station:NOAA.NERRS:marscwq:1,2017-06-09T11:00:00Z,27.8383,-97.0503,2.0,1111122 
NERRS,ioos:station:NOAA.NERRS:marscwq:1,2017-06-09T12:00:00Z,27.8383,-97.0503,1.0,1111122 
NERRS,ioos:station:NOAA.NERRS:marscwq:1,2017-06-09T13:00:00Z,27.8383,-97.0503,1.0,1111122 
NERRS,ioos:station:NOAA.NERRS:marscwq:1,2017-06-09T16:00:00Z,27.8383,-97.0503,1.0,1111122 
NERRS,ioos:station:NOAA.NERRS:marscwq:1,2017-06-09T23:00:00Z,27.8383,-97.0503,1.0,1111122 
NERRS,ioos:station:NOAA.NERRS:marscwq:1,2017-06-10T00:00:00Z,27.8383,-97.0503,1.0,1111122 
NERRS,ioos:station:NOAA.NERRS:marscwq:1,2017-06-10T01:00:00Z,27.8383,-97.0503,2.0,1111122 
NERRS,ioos:station:NOAA.NERRS:marscwq:1,2017-06-10T02:00:00Z,27.8383,-97.0503,3.0,1111122 
NERRS,ioos:station:NOAA.NERRS:marscwq:1,2017-06-10T03:00:00Z,27.8383,-97.0503,2.0,1111122 
NERRS,ioos:station:NOAA.NERRS:marscwq:1,2017-06-10T04:00:00Z,27.8383,-97.0503,9.0,1111122 
NERRS,ioos:station:NOAA.NERRS:marscwq:1,2017-06-10T05:00:00Z,27.8383,-97.0503,5.0,1111122 
NERRS,ioos:station:NOAA.NERRS:marscwq:1,2017-06-10T06:00:00Z,27.8383,-97.0503,4.0,1111122 
NERRS,ioos:station:NOAA.NERRS:marscwq:1,2017-06-10T07:00:00Z,27.8383,-97.0503,4.0,1111122 
NERRS,ioos:station:NOAA.NERRS:marscwq:1,2017-06-10T08:00:00Z,27.8383,-97.0503,5.0,1111122 
NERRS,ioos:station:NOAA.NERRS:marscwq:1,2017-06-10T09:00:00Z,27.8383,-97.0503,7.0,1111122 
NERRS,ioos:station:NOAA.NERRS:marscwq:1,2017-06-10T10:00:00Z,27.8383,-97.0503,3.0,1111122 
NERRS,ioos:station:NOAA.NERRS:marscwq:1,2017-06-10T11:00:00Z,27.8383,-97.0503,2.0,1111122 
NERRS,ioos:station:NOAA.NERRS:marscwq:1,2017-06-10T12:00:00Z,27.8383,-97.0503,2.0,1111122 
NERRS,ioos:station:NOAA.NERRS:marscwq:1,2017-06-10T13:00:00Z,27.8383,-97.0503,1.0,1111122 
NERRS,ioos:station:NOAA.NERRS:marscwq:1,2017-06-10T19:00:00Z,27.8383,-97.0503,1.0,1111122 
NERRS,ioos:station:NOAA.NERRS:marscwq:1,2017-06-10T23:00:00Z,27.8383,-97.0503,1.0,1111122 
NERRS,ioos:station:NOAA.NERRS:marscwq:1,2017-06-11T00:00:00Z,27.8383,-97.0503,1.0,1111122 
NERRS,ioos:station:NOAA.NERRS:marscwq:1,2017-06-11T01:00:00Z,27.8383,-97.0503,2.0,1111122 
NERRS,ioos:station:NOAA.NERRS:marscwq:1,2017-06-11T02:00:00Z,27.8383,-97.0503,3.0,1111122 
NERRS,ioos:station:NOAA.NERRS:marscwq:1,2017-06-11T03:00:00Z,27.8383,-97.0503,3.0,1111122 
NERRS,ioos:station:NOAA.NERRS:marscwq:1,2017-06-11T04:00:00Z,27.8383,-97.0503,13.0,1111122 
NERRS,ioos:station:NOAA.NERRS:marscwq:1,2017-06-11T05:00:00Z,27.8383,-97.0503,7.0,1111122 
NERRS,ioos:station:NOAA.NERRS:marscwq:1,2017-06-11T06:00:00Z,27.8383,-97.0503,5.0,1111122 
NERRS,ioos:station:NOAA.NERRS:marscwq:1,2017-06-11T07:00:00Z,27.8383,-97.0503,4.0,1111122 
NERRS,ioos:station:NOAA.NERRS:marscwq:1,2017-06-11T08:00:00Z,27.8383,-97.0503,2.0,1111122 
NERRS,ioos:station:NOAA.NERRS:marscwq:1,2017-06-11T09:00:00Z,27.8383,-97.0503,3.0,1111122 
NERRS,ioos:station:NOAA.NERRS:marscwq:1,2017-06-11T10:00:00Z,27.8383,-97.0503,2.0,1111122 
NERRS,ioos:station:NOAA.NERRS:marscwq:1,2017-06-11T11:00:00Z,27.8383,-97.0503,3.0,1111122 
NERRS,ioos:station:NOAA.NERRS:marscwq:1,2017-06-11T12:00:00Z,27.8383,-97.0503,3.0,1111122 
NERRS,ioos:station:NOAA.NERRS:marscwq:1,2017-06-11T13:00:00Z,27.8383,-97.0503,3.0,1111122 
NERRS,ioos:station:NOAA.NERRS:marscwq:1,2017-06-11T14:00:00Z,27.8383,-97.0503,3.0,1111122 
NERRS,ioos:station:NOAA.NERRS:marscwq:1,2017-06-11T15:00:00Z,27.8383,-97.0503,2.0,1111122 
NERRS,ioos:station:NOAA.NERRS:marscwq:1,2017-06-11T16:00:00Z,27.8383,-97.0503,1.0,1111122 
NERRS,ioos:station:NOAA.NERRS:marscwq:1,2017-06-11T17:00:00Z,27.8383,-97.0503,2.0,1111122 
NERRS,ioos:station:NOAA.NERRS:marscwq:1,2017-06-12T00:00:00Z,27.8383,-97.0503,1.0,1111122 
NERRS,ioos:station:NOAA.NERRS:marscwq:1,2017-06-12T01:00:00Z,27.8383,-97.0503,3.0,1111122 
NERRS,ioos:station:NOAA.NERRS:marscwq:1,2017-06-12T02:00:00Z,27.8383,-97.0503,4.0,1111122 
NERRS,ioos:station:NOAA.NERRS:marscwq:1,2017-06-12T03:00:00Z,27.8383,-97.0503,5.0,1111122 
NERRS,ioos:station:NOAA.NERRS:marscwq:1,2017-06-12T04:00:00Z,27.8383,-97.0503,4.0,1111122 
NERRS,ioos:station:NOAA.NERRS:marscwq:1,2017-06-12T05:00:00Z,27.8383,-97.0503,6.0,1111122 
NERRS,ioos:station:NOAA.NERRS:marscwq:1,2017-06-12T06:00:00Z,27.8383,-97.0503,5.0,1111122 
NERRS,ioos:station:NOAA.NERRS:marscwq:1,2017-06-12T07:00:00Z,27.8383,-97.0503,3.0,1111122 
NERRS,ioos:station:NOAA.NERRS:marscwq:1,2017-06-12T08:00:00Z,27.8383,-97.0503,2.0,1111122 
NERRS,ioos:station:NOAA.NERRS:marscwq:1,2017-06-12T09:00:00Z,27.8383,-97.0503,2.0,1111122 
NERRS,ioos:station:NOAA.NERRS:marscwq:1,2017-06-12T10:00:00Z,27.8383,-97.0503,2.0,1111122 
NERRS,ioos:station:NOAA.NERRS:marscwq:1,2017-06-12T11:00:00Z,27.8383,-97.0503,2.0,1111122 
NERRS,ioos:station:NOAA.NERRS:marscwq:1,2017-06-12T12:00:00Z,27.8383,-97.0503,2.0,1111122 
NERRS,ioos:station:NOAA.NERRS:marscwq:1,2017-06-12T13:00:00Z,27.8383,-97.0503,3.0,1111122 
NERRS,ioos:station:NOAA.NERRS:marscwq:1,2017-06-12T14:00:00Z,27.8383,-97.0503,3.0,1111122 
NERRS,ioos:station:NOAA.NERRS:marscwq:1,2017-06-12T15:00:00Z,27.8383,-97.0503,2.0,1111122 
NERRS,ioos:station:NOAA.NERRS:marscwq:1,2017-06-12T16:00:00Z,27.8383,-97.0503,2.0,1111122 
NERRS,ioos:station:NOAA.NERRS:marscwq:1,2017-06-12T17:00:00Z,27.8383,-97.0503,1.0,1111122 
NERRS,ioos:station:NOAA.NERRS:marscwq:1,2017-06-12T18:00:00Z,27.8383,-97.0503,1.0,1111122 
NERRS,ioos:station:NOAA.NERRS:marscwq:1,2017-06-13T15:00:00Z,27.8383,-97.0503,8.0,1111122 
NERRS,ioos:station:NOAA.NERRS:marscwq:1,2017-06-13T16:00:00Z,27.8383,-97.0503,6.0,1111122 
NERRS,ioos:station:NOAA.NERRS:marscwq:1,2017-06-13T17:00:00Z,27.8383,-97.0503,6.0,1111122 
NERRS,ioos:station:NOAA.NERRS:marscwq:1,2017-06-13T18:00:00Z,27.8383,-97.0503,5.0,1111122 
NERRS,ioos:station:NOAA.NERRS:marscwq:1,2017-06-13T19:00:00Z,27.8383,-97.0503,5.0,1111122 
NERRS,ioos:station:NOAA.NERRS:marscwq:1,2017-06-13T20:00:00Z,27.8383,-97.0503,2.0,1111122 
NERRS,ioos:station:NOAA.NERRS:marscwq:1,2017-06-13T21:00:00Z,27.8383,-97.0503,1.0,1111122 
NERRS,ioos:station:NOAA.NERRS:marscwq:1,2017-06-13T22:00:00Z,27.8383,-97.0503,1.0,1111122 
NERRS,ioos:station:NOAA.NERRS:marscwq:1,2017-06-13T23:00:00Z,27.8383,-97.0503,1.0,1111122 
NERRS,ioos:station:NOAA.NERRS:marscwq:1,2017-06-14T00:00:00Z,27.8383,-97.0503,1.0,1111122 
NERRS,ioos:station:NOAA.NERRS:marscwq:1,2017-06-14T01:00:00Z,27.8383,-97.0503,1.0,1111122 
NERRS,ioos:station:NOAA.NERRS:marscwq:1,2017-06-14T02:00:00Z,27.8383,-97.0503,2.0,1111122 
NERRS,ioos:station:NOAA.NERRS:marscwq:1,2017-06-14T03:00:00Z,27.8383,-97.0503,7.0,1111122 
NERRS,ioos:station:NOAA.NERRS:marscwq:1,2017-06-14T04:00:00Z,27.8383,-97.0503,10.0,1111122 
NERRS,ioos:station:NOAA.NERRS:marscwq:1,2017-06-14T05:00:00Z,27.8383,-97.0503,14.0,1111122 
NERRS,ioos:station:NOAA.NERRS:marscwq:1,2017-06-14T06:00:00Z,27.8383,-97.0503,20.0,1111122 
NERRS,ioos:station:NOAA.NERRS:marscwq:1,2017-06-14T07:00:00Z,27.8383,-97.0503,18.0,1111122 
NERRS,ioos:station:NOAA.NERRS:marscwq:1,2017-06-14T08:00:00Z,27.8383,-97.0503,6.0,1111122 
NERRS,ioos:station:NOAA.NERRS:marscwq:1,2017-06-14T09:00:00Z,27.8383,-97.0503,4.0,1111122 
NERRS,ioos:station:NOAA.NERRS:marscwq:1,2017-06-14T10:00:00Z,27.8383,-97.0503,5.0,1111122 
NERRS,ioos:station:NOAA.NERRS:marscwq:1,2017-06-14T11:00:00Z,27.8383,-97.0503,3.0,1111122 
NERRS,ioos:station:NOAA.NERRS:marscwq:1,2017-06-14T12:00:00Z,27.8383,-97.0503,5.0,1111122 
NERRS,ioos:station:NOAA.NERRS:marscwq:1,2017-06-14T13:00:00Z,27.8383,-97.0503,17.0,1111122 
NERRS,ioos:station:NOAA.NERRS:marscwq:1,2017-06-14T14:00:00Z,27.8383,-97.0503,13.0,1111122 
NERRS,ioos:station:NOAA.NERRS:marscwq:1,2017-06-14T15:00:00Z,27.8383,-97.0503,14.0,1111122 